Skip Page Navigation
NASA JPL Caltech
NASA Logo - Jet Propulsion Laboratory + View the NASA Portal
+ Center for Near-Earth Object Studies
JPL Home Earth Solar System Stars & Galaxies Technology
JPL Solar System Dynamics
BODIES ORBITS EPHEMERIDES TOOLS PHYSICAL DATA DISCOVERY FAQ SITE MAP
JPL Small-Body Database Browser
Search: [ help ]  
134060 (2004 XR43)
Classification: Main-belt Asteroid          SPK-ID: 2134060
Ephemeris | Orbit Diagram | Orbital Elements | Mission Design | Physical Parameters | Discovery Circumstances | Close-Approach Data ]

[ show orbit diagram ]
Orbital Elements at Epoch 2459200.5 (2020-Dec-17.0) TDB
Reference: JPL 21 (heliocentric ecliptic J2000)
 Element Value Uncertainty (1-sigma)   Units 
e .09637671155311242 4.9167e-08  
a 3.082524798569345 2.9773e-08 au
q 2.785441195202311 1.5518e-07 au
i 8.634835782813273 4.2155e-06 deg
node 93.26841971685022 3.4709e-05 deg
peri 118.1812224615116 4.1866e-05 deg
M 222.3940277908508 2.6868e-05 deg
tp 2459956.101963557303
(2023-Jan-11.60196356)
0.00015458 TDB
period 1976.779804783378
5.41
2.864e-05
7.841e-08
d
yr
n .1821143655600275 2.6385e-09 deg/d
Q 3.379608401936379 3.2643e-08 au
  Orbit Determination Parameters
   # obs. used (total)      568  
   data-arc span      7706 days (21.10 yr)  
   first obs. used      1999-12-07  
   last obs. used      2021-01-11  
   planetary ephem.      DE441  
   SB-pert. ephem.      SB441-N16  
   condition code      0  
   norm. resid. RMS      .54639  
   source      ORB  
   producer      Otto Matic  
   solution date      2021-Apr-13 18:06:44  

Additional Information
 Earth MOID = 1.79081 au 
 Jupiter MOID = 1.65053 au 
 T_jup = 3.203 
[ show covariance matrix ]

Ephemeris | Orbit Diagram | Orbital Elements | Mission Design | Physical Parameters | Discovery Circumstances | Close-Approach Data ]

Physical Parameter Table
Parameter Symbol Value Units Sigma Reference Notes
absolute magnitude H 14.8   n/a MPO453825  

134060 (2004 XR43)          Discovered 2004-Dec-11 by CINEOS at Campo Imperatore
Reference: 20060711/Numbers.arcLast Updated: 2006-07-17

[ show close-approach data ]
Alternate Designations
 2004 XR43 = 2006 BN219 
Ephemeris | Orbit Diagram | Orbital Elements | Mission Design | Physical Parameters | Discovery Circumstances | Close-Approach Data ]
ABOUT SSD CREDITS/AWARDS PRIVACY/COPYRIGHT GLOSSARY LINKS
FirstGov 2021-Apr-18 10:03 UT
(server date/time)  
NASA Home Page
Site Manager:   Ryan S. Park
Webmaster  Alan B. Chamberlin